Hourly Data Report for July 26, 2021

SALLUIT
QUEBEC
Current Station Operator: ECCC - MSC

62°10'46.005" N
75°40'13.006" W
228.00 m
7117800
71641
MFX

Download Data

Hourly Data (July 2021)
Hourly Data Report for July 26, 2021
TIME
LST
Temp Definition
°C
Dew Point Definition
°C
Rel Hum Definition
%
Precip. Amount Definition
mm

Wind Dir Definition
10's deg

Wind Spd Definition
km/h
Visibility Definition
km
Stn Press Definition
kPa
Hmdx Definition


Wind Chill Definition


Weather Definition


00:00 5.5 3.3 86 0.0 19 49   96.32     LegendNANA
01:00 5.4 3.3 86 0.0 19 53   96.28     LegendNANA
02:00 5.5 3.3 86 0.0 20 69   96.20     LegendNANA
03:00 5.4 3.6 88 0.0 20 63   96.28     LegendNANA
04:00 5.3 3.8 91 0.0 20 66   96.30     LegendNANA
05:00 5.3 4.3 93 0.0 21 59   96.37     LegendNANA
06:00 5.2 4.3 94 0.0 21 65   96.37     LegendNANA
07:00 5.2 4.5 95 0.0 20 56   96.44     LegendNANA
08:00 5.6 4.4 92 0.0 20 57   96.47     LegendNANA
09:00
10:00 7.0 4.6 85 0.0 21 48   96.61     LegendNANA
11:00 7.5 4.7 83 0.0 22 48   96.65     LegendNANA
12:00 7.2 4.2 81 0.0 23 52   96.69     LegendNANA
13:00 7.8 4.2 78 0.0 22 55   96.74     LegendNANA
14:00 8.0 3.7 74 0.0 22 53   96.78     LegendNANA
15:00 7.5 3.9 78 0.0 22 56   96.85     LegendNANA
16:00 7.8 3.6 75 0.0 23 47   96.95     LegendNANA
17:00 6.9 3.4 78 0.0 24 45   97.02     LegendNANA
18:00 6.3 3.2 81 0.0 22 47   97.07     LegendNANA
19:00 5.4 3.2 86 0.0 23 40   97.17     LegendNANA
20:00 5.1 2.8 85 0.0 22 42   97.22     LegendNANA
21:00 4.6 2.2 85 0.0 23 36   97.30     LegendNANA
22:00 3.8 2.0 88 0.0 22 56   97.31     LegendNANA
23:00 3.9 1.4 84 0.0 22 49   97.37     LegendNANA

Notes on Data Quality.

Legend

  • E = Estimated
  • M = Missing
  • NA = Not Available*
  • [empty] = Indicates an unobserved value
Date modified: